Miscellaneous Local Product
Issued by NWS Hastings, NE

Home | Current Version | Previous Version | Text Only | Print | Product List | Glossary Off
Versions: 1 2 3 4 5 6 7 8 9 10 11 12 13 14 15 16 17 18 19 20 21 22 23 24 25 26 27 28 29 30 31 32 33 34 35 36 37 38 39 40 41 42 43 44 45 46 47 48 49 50

786
AXUS43 KGID 050002
MISGRI

GID CWA HOURLY WEATHER ROUNDUP
NATIONAL WEATHER SERVICE HASTINGS NE
700 PM CDT WED MAY 04 2016

NOTE: "FAIR" INDICATES FEW OR NO CLOUDS BELOW 12,000 FEET WITH NO
SIGNIFICANT WEATHER AND/OR OBSTRUCTIONS TO VISIBILITY.

...SOUTH CENTRAL NEBRASKA...

CITY           SKY/WX    TMP DP  RH WIND       PRES   REMARKS
GRAND ISLAND   SUNNY     69  31  24 N12       30.05F
HASTINGS       SUNNY     68  32  26 N14       30.05F
KEARNEY        SUNNY     70  36  28 N12       30.07F
ORD            SUNNY     69  36  29 N12       30.04F
YORK           SUNNY     68  30  24 N9        30.04S
AURORA         SUNNY     69  28  21 NW10G16   30.04F
LEXINGTON      SUNNY     70  40  33 N7        30.07S
HOLDREGE       SUNNY     71  33  24 N7        30.07S
HEBRON         SUNNY     70  29  21 N12       30.03F

...NEBRASKA PANHANDLE...

CITY           SKY/WX    TMP DP  RH WIND       PRES   REMARKS
CHADRON        SUNNY     76  41  28 S10       30.04F
ALLIANCE       SUNNY     72  38  29 E7        30.09F
SCOTTSBLUFF    SUNNY     75  39  27 E8        30.08F
SIDNEY         SUNNY     72  40  31 SE7       30.12F

...WESTERN AND NORTH CENTRAL NEBRASKA...

CITY           SKY/WX    TMP DP  RH WIND       PRES   REMARKS
VALENTINE      SUNNY     74  35  24 N5        30.07F
AINSWORTH      SUNNY     70  34  26 NW3       30.08S
ONEILL         SUNNY     68  32  26 N6        30.07S
BROKEN BOW     SUNNY     72  45  37 NE7       30.06F
IMPERIAL       MOSUNNY   76  38  25 NE5       30.09S
NORTH PLATTE   SUNNY     74  37  26 NE9       30.07S
MCCOOK         SUNNY     76  40  27 NE7       30.06F

...EASTERN NEBRASKA...

CITY           SKY/WX    TMP DP  RH WIND       PRES   REMARKS
NORFOLK        SUNNY     67  32  27 NW14      30.02F
SO SIOUX CITY  SUNNY     67  40  37 NW14      30.00F
TEKAMAH        SUNNY     67  42  40 N12       30.00F
COLUMBUS       SUNNY     70  32  24 NW13      30.03F
ALBION         SUNNY     66  34  29 N7G16     30.04F
OMAHA EPPLEY   SUNNY     68  39  34 N14       29.99F
OFFUTT AFB     SUNNY     67  38  34 N8        29.99F
MILLARD        SUNNY     69  37  30 NW7       30.00F
LINCOLN        SUNNY     71  32  23 N14       30.02F
NEBRASKA CITY  SUNNY     67  34  29 N12       30.00S
BEATRICE       SUNNY     68  37  31 N13       30.01F
FALLS CITY     SUNNY     67  34  29 N13G24    29.99S

...NORTHERN KANSAS...

CITY           SKY/WX    TMP DP  RH WIND       PRES   REMARKS
GOODLAND       SUNNY     73  44  35 NE8       30.11S
HILL CITY      SUNNY     76  39  26 NE8       30.07F
NORTON         CLEAR     73  32  21 NE6       30.06F
PHILLIPSBURG   SUNNY     72  39  30 N7        30.06S
SMITH CENTER   SUNNY     68  39  34 N10       30.05F
BELOIT         SUNNY     72  32  23 N9        30.03S
HAYS           SUNNY     72  41  33 N6        30.06F
RUSSELL        SUNNY     72  37  28 N8        30.04F
CONCORDIA      SUNNY     70  33  25 N10       30.03F
SALINA         SUNNY     72  37  28 N14       30.03F
TOPEKA         SUNNY     69  37  30 NW10G20   29.99S



USA.gov is the U.S. government's official web portal to all federal, state and local government web resources and services.